Location: Bay Ridge
(40.6340°N, 74.0146°W)
Time: 13:46:13
(UTC+00:00)

Cosmos 1151 Rocket - Pass Details

Date: 15 November 2019
Orbit: 593 x 615 km, 82.5° (Epoch: 06 December)

Event Time Altitude Azimuth Distance (km) Brightness Sun altitude
Rises 10:26:15 0° 354° (N) 2,892 6.3 -14.6°
Reaches altitude 10° 10:28:30 10° 357° (N) 1,980 5.5 -14.1°
Maximum altitude 10:32:52 69° 81° (E) 659 3.4 -13.3°
Drops below altitude 10° 10:37:10 10° 165° (SSE) 1,953 6.0 -12.5°
Sets 10:39:23 0° 168° (SSE) 2,849 6.8 -12.1°
